CW1129 Weather Reports


Display with metric or nautical units.
time (UTC)temp
F
wind
direction
speed
MPH
gust
MPH
rain 1hr
in
rain 24hr
in
rain mn
in
humidity
%
barometer
mb
20260507181746 63 315 2.0 4.0 0.00 0.15 0.03 20 1002.0
20260507180746 63 293 1.0 4.0 0.00 0.15 0.03 20 1002.0
20260507175745 63 225 1.0 5.0 0.00 0.15 0.03 22 1001.9
20260507174746 63 248 2.0 5.0 0.00 0.15 0.03 20 1001.9
20260507173806 62 315 2.0 7.0 0.00 0.15 0.03 21 1001.9
20260507172746 62 293 2.0 5.0 0.00 0.15 0.03 20 1002.0
20260507171745 62 293 2.0 7.0 0.00 0.15 0.03 22 1002.0
20260507170806 62 270 2.0 5.0 0.00 0.15 0.03 24 1002.1
20260507165746 62 315 2.0 6.0 0.00 0.15 0.03 26 1002.4
20260507164747 61 293 2.0 8.0 0.00 0.15 0.03 26 1002.4
20260507163747 60 293 3.0 7.0 0.00 0.15 0.03 26 1002.6
20260507162747 60 270 4.0 7.0 0.00 0.15 0.03 27 1002.7
20260507161747 60 270 2.0 6.0 0.00 0.15 0.03 29 1002.7
20260507160747 59 293 2.0 7.0 0.00 0.15 0.03 34 1002.8
20260507155807 59 315 2.0 6.0 0.00 0.15 0.03 37 1002.8
20260507153747 59 315 2.0 6.0 0.00 0.15 0.03 39 1002.8
20260507152747 59 248 3.0 6.0 0.00 0.15 0.03 43 1003.0
20260507151747 58 293 2.0 5.0 0.00 0.15 0.03 45 1003.0
20260507150747 58 270 2.0 5.0 0.00 0.15 0.03 44 1003.2
20260507145747 58 270 1.0 3.0 0.00 0.15 0.03 49 1003.3
20260507144747 57 270 2.0 3.0 0.00 0.15 0.03 48 1003.3
20260507143747 56 270 1.0 3.0 0.00 0.15 0.03 52 1003.3
20260507142747 57 315 1.0 3.0 0.00 0.15 0.03 49 1003.3
20260507141807 57 0.0 3.0 0.00 0.15 0.03 52 1003.3
20260507140747 57 315 1.0 2.0 0.00 0.15 0.03 50 1003.3
20260507135747 57 315 1.0 4.0 0.00 0.15 0.03 49 1003.2
20260507134747 56 0 3.0 8.0 0.00 0.15 0.03 50 1003.2
20260507133747 55 315 1.0 3.0 0.00 0.15 0.03 55 1003.3
20260507132747 55 315 1.0 3.0 0.00 0.15 0.03 57 1003.6
20260507131807 54 315 1.0 3.0 0.00 0.15 0.03 59 1003.6
20260507130747 53 293 1.0 2.0 0.00 0.15 0.03 61 1003.6
20260507125747 53 0.0 1.0 0.00 0.15 0.03 63 1003.7
20260507124752 52 0.0 2.0 0.00 0.15 0.03 65 1003.7
20260507123747 51 338 1.0 5.0 0.00 0.15 0.03 68 1003.7
20260507122747 50 0 1.0 7.0 0.00 0.15 0.03 70 1003.9
20260507121747 49 0.0 0.0 0.00 0.15 0.03 73 1003.8
20260507120747 49 0.0 2.0 0.00 0.15 0.03 74 1003.9
20260507115746 49 0.0 2.0 0.00 0.15 0.03 76 1003.7
20260507114746 49 0.0 1.0 0.00 0.15 0.03 78 1003.7
20260507113746 48 0.0 0.0 0.00 0.15 0.03 80 1003.7
20260507112746 48 0.0 0.0 0.00 0.15 0.03 82 1003.5
20260507111746 48 0.0 0.0 0.00 0.15 0.03 83 1003.5
20260507110746 47 0.0 0.0 0.00 0.15 0.03 84 1003.5
20260507105746 47 0.0 0.0 0.00 0.15 0.03 84 1003.5
20260507104746 47 0.0 0.0 0.00 0.15 0.03 83 1003.5
20260507103746 47 0.0 0.0 0.00 0.15 0.03 82 1002.9
20260507102746 47 0.0 0.0 0.00 0.15 0.03 82 1002.9
20260507101746 47 0.0 0.0 0.00 0.15 0.03 81 1002.9
20260507100806 47 0.0 1.0 0.00 0.15 0.03 81 1002.9
20260507095746 47 270 1.0 5.0 0.00 0.15 0.03 82 1002.5
20260507094746 47 0.0 2.0 0.00 0.15 0.03 83 1002.5
20260507093746 47 0.0 0.0 0.00 0.15 0.03 84 1002.8
20260507092746 47 0.0 0.0 0.00 0.15 0.03 83 1002.9
20260507091746 47 0.0 0.0 0.00 0.15 0.03 83 1002.9
20260507090746 48 0.0 0.0 0.00 0.15 0.03 83 1003.4
20260507085746 48 0.0 1.0 0.00 0.15 0.03 83 1003.2
20260507084746 48 0.0 1.0 0.00 0.15 0.03 84 1003.2
20260507083746 48 0.0 1.0 0.01 0.15 0.03 85 1003.0
20260507082746 48 0.0 0.0 0.01 0.15 0.03 86 1002.7
20260507081746 49 0.0 0.0 0.01 0.15 0.03 86 1002.7
20260507080746 49 0.0 0.0 0.01 0.15 0.03 86 1002.7
20260507075806 49 0.0 0.0 0.01 0.15 0.03 85 1003.0
20260507074745 49 0.0 2.0 0.01 0.15 0.03 83 1003.0
20260507073745 50 293 1.0 3.0 0.00 0.14 0.02 84 1003.0
20260507072745 50 0.0 2.0 0.00 0.14 0.02 86 1002.2
20260507071745 50 0.0 2.0 0.00 0.14 0.02 87 1002.2
20260507070746 51 0.0 1.0 0.00 0.14 0.02 88 1002.1
20260507065806 51 0.0 1.0 0.00 0.14 0.02 88 1001.9
20260507064745 51 0.0 0.0 0.00 0.14 0.02 89 1001.9
20260507063745 51 0.0 0.0 0.00 0.14 0.02 89 1002.1
20260507062745 52 0.0 0.0 0.00 0.14 0.02 89 1002.2
20260507061745 52 0.0 0.0 0.00 0.14 0.02 90 1002.2
20260507060745 52 0.0 3.0 0.00 0.14 0.02 90 1002.2
20260507055747 53 0.0 0.0 0.00 0.14 0.02 90 1002.3
20260507054747 53 0.0 0.0 0.00 0.14 0.02 90 1002.3
20260507053747 53 0.0 0.0 0.00 0.14 0.02 90 1002.5
20260507052747 53 0.0 0.0 0.00 0.14 0.02 90 1002.5
20260507051747 54 0.0 0.0 0.00 0.14 0.02 90 1002.5
20260507050747 54 0.0 0.0 0.00 0.14 0.02 89 1002.4
20260507045747 54 0.0 1.0 0.02 0.14 0.02 89 1002.5
20260507044747 54 0.0 0.0 0.02 0.14 0.02 89 1002.5
20260507043807 55 0.0 0.0 0.02 0.14 0.02 89 1002.2
20260507042747 55 0.0 0.0 0.02 0.14 0.02 89 1002.3
20260507041747 55 0.0 0.0 0.02 0.14 0.02 88 1002.3
20260507040747 56 0.0 2.0 0.02 0.14 0.02 88 1002.5
20260507035746 57 203 1.0 2.0 0.00 0.12 0.12 89 1002.2
20260507034806 58 0.0 2.0 0.00 0.12 0.12 90 1002.2
20260507033747 58 0.0 0.0 0.00 0.12 0.12 90 1001.9
20260507032747 58 0.0 2.0 0.00 0.12 0.12 90 1001.5
20260507031746 58 0.0 0.0 0.00 0.12 0.12 90 1001.5
20260507030746 58 180 1.0 2.0 0.00 0.12 0.12 90 1001.3
20260507025746 59 180 1.0 2.0 0.00 0.12 0.12 91 1001.4
20260507024746 58 203 1.0 4.0 0.00 0.12 0.12 91 1001.4
20260507023746 58 0.0 0.0 0.00 0.12 0.12 90 1001.3
20260507022806 58 203 1.0 3.0 0.00 0.12 0.12 90 1001.2
20260507021746 58 0.0 3.0 0.00 0.12 0.12 90 1001.2
20260507020746 58 0.0 1.0 0.00 0.12 0.12 90 1001.1
20260507015746 58 0.0 3.0 0.00 0.12 0.12 90 1001.1
20260507014746 58 0.0 2.0 0.00 0.12 0.12 90 1001.1
20260507013746 58 0.0 3.0 0.00 0.12 0.12 90 1001.1
20260507012746 58 225 1.0 2.0 0.00 0.12 0.12 90 1001.1
20260507011806 58 225 1.0 6.0 0.00 0.12 0.12 90 1001.1
20260507010746 58 203 1.0 4.0 0.00 0.12 0.12 90 1001.2
20260507005746 58 203 1.0 4.0 0.00 0.12 0.12 90 1001.2
20260507004746 58 203 1.0 3.0 0.00 0.12 0.12 90 1001.2
20260507003746 58 225 1.0 3.0 0.00 0.12 0.12 90 1001.2
20260507002746 58 203 1.0 3.0 0.00 0.12 0.12 90 1001.0
20260507001746 58 203 1.0 3.0 0.01 0.12 0.12 90 1001.0
20260507000746 58 203 1.0 5.0 0.01 0.12 0.12 90 1001.0
20260506235806 58 0.0 2.0 0.03 0.12 0.12 90 1000.9
20260506234746 58 203 1.0 5.0 0.04 0.12 0.12 90 1000.9
20260506233746 58 225 1.0 3.0 0.05 0.12 0.12 89 1000.9
20260506232745 59 0.0 3.0 0.05 0.12 0.12 89 1000.8
20260506231745 59 0.0 3.0 0.05 0.11 0.11 89 1000.7
20260506230806 59 225 1.0 3.0 0.05 0.11 0.11 89 1000.9
20260506225746 59 203 1.0 2.0 0.03 0.09 0.09 89 1001.0
20260506224746 59 158 1.0 3.0 0.02 0.08 0.08 88 1001.0
20260506223745 59 293 1.0 7.0 0.01 0.07 0.07 88 1001.0
20260506222745 59 0.0 1.0 0.01 0.07 0.07 88 1001.2
20260506221745 59 203 1.0 3.0 0.00 0.06 0.06 87 1001.2
20260506220746 59 248 1.0 6.0 0.00 0.06 0.06 87 1001.3
20260506215745 59 270 1.0 5.0 0.00 0.06 0.06 87 1001.4
20260506214745 59 180 1.0 5.0 0.01 0.06 0.06 87 1001.4
20260506213745 59 158 1.0 3.0 0.01 0.06 0.06 86 1001.5
20260506212745 59 158 1.0 6.0 0.01 0.06 0.06 86 1001.7
20260506211745 59 203 1.0 8.0 0.02 0.06 0.06 86 1001.7
20260506210745 59 225 1.0 3.0 0.02 0.06 0.06 86 1001.9
20260506205745 59 225 1.0 5.0 0.03 0.06 0.06 86 1002.0
20260506204745 59 180 1.0 4.0 0.02 0.05 0.05 85 1002.0
20260506203745 60 180 1.0 6.0 0.02 0.05 0.05 84 1002.0
20260506202747 60 248 2.0 5.0 0.02 0.05 0.05 84 1002.0
20260506201747 60 180 2.0 5.0 0.02 0.04 0.04 83 1002.0
20260506200747 61 203 2.0 6.0 0.03 0.04 0.04 82 1002.1
20260506195747 61 225 1.0 5.0 0.02 0.03 0.03 82 1002.1
20260506194747 62 180 1.0 2.0 0.03 0.03 0.03 82 1002.1
20260506193747 62 0.0 2.0 0.03 0.03 0.03 81 1002.0
20260506192747 62 0.0 2.0 0.03 0.03 0.03 79 1002.0
20260506191807 63 248 1.0 5.0 0.02 0.02 0.02 78 1002.0
20260506190747 64 203 1.0 3.0 0.01 0.01 0.01 76 1002.1
20260506185747 65 0.0 1.0 0.01 0.01 0.01 71 1002.3
20260506184747 66 203 3.0 10.0 0.00 0.00 0.00 65 1002.3
20260506183747 67 225 3.0 10.0 0.00 0.00 0.00 60 1002.4
20260506182747 68 203 2.0 7.0 0.00 0.00 0.00 58 1002.4